Date String (YYYY-MM-DD hh:mm:ss) UTC,Instrument flags,Ambient pressure (hPa),Sample flow (lpm),Bypass flow (lpm),Sample temperature (°C),Ambient temperature (°C),ASC tube jacket temperature (°C),LED temperature (°C),Box temperature (°C),Sample RH (%),Span deviation,Mass concentration (μg/m³),Mass concentration (μg/m³),Mass concentration (μg/m³)
DateTimeUTC,F1_M11,P_M11,Q1_M11,Q2_M11,T1_M11,T2_M11,T3_M11,T4_M11,T5_M11,U1_M11,ZSPAN_M11,X0_M11,X2_M11,X1_M11
2022-08-31 15:00:00,,0831.5,5.00,0.00,30.0,28.4,00.0,38.7,31.8,19.4,0000.0,0014.40,0005.81,0004.95
2022-08-31 15:01:00,,0831.5,5.00,0.00,30.0,28.6,00.0,38.7,31.8,19.8,0000.0,0014.88,0005.79,0004.95
2022-08-31 15:02:00,,0831.5,4.99,0.00,30.0,28.7,00.0,38.8,31.9,20.1,0000.0,0014.46,0005.82,0004.96
2022-08-31 15:03:00,,0831.5,5.00,0.00,30.0,28.8,00.0,38.8,31.9,20.0,0000.0,0014.51,0005.85,0004.96
2022-08-31 15:04:00,,0831.4,5.01,0.00,30.0,28.9,00.0,38.8,31.9,19.7,0000.0,0014.38,0005.82,0004.96
2022-08-31 15:05:00,,0831.3,5.00,0.00,30.1,29.0,00.0,38.8,31.9,20.2,0000.0,0014.09,0005.77,0004.95
2022-08-31 15:06:00,,0831.4,4.99,0.00,30.1,29.0,00.0,38.8,32.0,19.1,0000.0,0014.01,0005.77,0004.93
2022-08-31 15:07:00,,0831.4,4.99,0.00,30.1,29.1,00.0,38.8,32.0,18.9,0000.0,0014.49,0005.78,0004.92
2022-08-31 15:08:00,,0831.4,5.01,0.00,30.2,29.1,00.0,38.8,32.0,19.4,0000.0,0014.87,0005.81,0004.91
2022-08-31 15:09:00,,0831.5,4.99,0.00,30.2,28.5,00.0,38.8,32.0,20.6,0000.0,0014.04,0005.81,0004.91
2022-08-31 15:10:00,,0831.4,4.99,0.00,30.1,27.3,00.0,38.8,31.9,19.4,0000.0,0013.03,0005.77,0004.90
2022-08-31 15:11:00,,0831.5,5.00,0.00,30.1,27.2,00.0,38.8,31.9,18.8,0000.0,0013.54,0005.79,0004.89
2022-08-31 15:12:00,,0831.5,5.01,0.00,30.0,27.5,00.0,38.7,31.8,19.4,0000.0,0014.75,0005.80,0004.88
2022-08-31 15:13:00,,0831.4,5.00,0.00,30.0,27.7,00.0,38.7,31.7,18.6,0000.0,0014.08,0005.74,0004.86
2022-08-31 15:14:00,,0831.4,4.99,0.00,30.0,28.0,00.0,38.7,31.7,19.0,0000.0,0013.76,0005.70,0004.84
2022-08-31 15:15:00,,0831.3,5.00,0.00,30.0,28.2,00.0,38.7,31.8,18.5,0000.0,0013.91,0005.72,0004.84
2022-08-31 15:16:00,,0831.4,5.00,0.00,30.0,28.4,00.0,38.7,31.8,18.7,0000.0,0014.32,0005.74,0004.82
2022-08-31 15:17:00,,0831.4,5.01,0.00,30.0,28.6,00.0,38.7,31.7,20.5,0000.0,0013.98,0005.75,0004.82
2022-08-31 15:18:00,,0831.4,5.01,0.00,30.0,28.7,00.0,38.7,31.8,22.5,0000.0,0014.05,0005.77,0004.82
2022-08-31 15:19:00,,0831.4,5.00,0.00,30.0,28.8,00.0,38.7,31.9,22.8,0000.0,0013.91,0005.78,0004.84
2022-08-31 15:20:00,,0831.3,5.01,0.00,30.0,28.9,00.0,38.7,31.9,21.7,0000.0,0013.92,0005.74,0004.83
2022-08-31 15:21:00,,0831.4,5.01,0.00,30.1,29.0,00.0,38.7,31.9,22.2,0000.0,0014.52,0005.77,0004.84
2022-08-31 15:22:00,,0831.5,4.98,0.00,30.1,29.0,00.0,38.8,32.0,22.3,0000.0,0013.98,0005.80,0004.86
2022-08-31 15:23:00,,0831.5,5.01,0.00,30.1,29.1,00.0,38.8,32.0,20.6,0000.0,0012.77,0005.86,0004.88
2022-08-31 15:24:00,,0831.5,5.00,0.00,30.1,29.1,00.0,38.8,32.0,21.4,0000.0,0013.47,0005.94,0004.91
2022-08-31 15:25:00,,0831.5,4.98,0.00,30.1,28.3,00.0,38.8,32.0,21.5,0000.0,0014.17,0006.01,0004.94
2022-08-31 15:26:00,,0831.4,5.01,0.00,30.1,27.1,00.0,38.7,31.9,21.2,0000.0,0014.34,0006.05,0004.96
2022-08-31 15:27:00,,0831.4,5.00,0.00,30.1,26.9,00.0,38.7,31.8,21.8,0000.0,0014.44,0006.10,0004.99
2022-08-31 15:28:00,,0831.4,5.00,0.00,30.0,27.2,00.0,38.7,31.7,21.9,0000.0,0014.50,0006.12,0005.01
2022-08-31 15:29:00,,0831.4,5.01,0.00,29.9,27.5,00.0,38.6,31.6,21.9,0000.0,0014.35,0006.14,0005.02
2022-08-31 15:30:00,,0831.3,5.01,0.00,29.9,27.8,00.0,38.6,31.6,21.9,0000.0,0013.63,0006.13,0005.04
2022-08-31 15:31:00,,0831.3,5.00,0.00,29.9,28.0,00.0,38.6,31.7,20.1,0000.0,0013.89,0006.13,0005.04
2022-08-31 15:32:00,,0831.3,5.01,0.00,29.9,28.2,00.0,38.6,31.7,20.0,0000.0,0014.18,0006.13,0005.03
2022-08-31 15:33:00,,0831.3,5.00,0.00,29.9,28.4,00.0,38.6,31.7,20.7,0000.0,0013.64,0006.14,0005.02
2022-08-31 15:34:00,,0831.3,5.00,0.00,29.9,28.6,00.0,38.6,31.8,22.6,0000.0,0013.57,0006.15,0005.01
2022-08-31 15:35:00,,0831.3,5.00,0.00,29.9,28.7,00.0,38.6,31.7,24.6,0000.0,0013.90,0006.15,0005.02
2022-08-31 15:36:00,,0831.3,5.01,0.00,29.9,28.8,00.0,38.6,31.8,24.0,0000.0,0014.08,0006.13,0005.05
2022-08-31 15:37:00,,0831.3,4.99,0.00,30.0,28.9,00.0,38.7,31.8,24.5,0000.0,0014.01,0006.14,0005.07
2022-08-31 15:38:00,,0831.3,4.99,0.00,30.0,28.9,00.0,38.7,31.9,24.8,0000.0,0014.63,0006.13,0005.10
2022-08-31 15:39:00,,0831.3,5.01,0.00,30.0,29.0,00.0,38.7,31.9,24.6,0000.0,0014.54,0006.14,0005.12
2022-08-31 15:40:00,,0831.4,4.98,0.00,30.1,29.1,00.0,38.7,32.0,24.8,0000.0,0015.60,0006.16,0005.13
2022-08-31 15:41:00,,0831.4,5.00,0.00,30.1,29.1,00.0,38.7,32.0,25.0,0000.0,0016.84,0006.21,0005.15
2022-08-31 15:42:00,,0831.4,5.00,0.00,30.1,28.5,00.0,38.7,32.0,25.2,0000.0,0016.78,0006.24,0005.18
2022-08-31 15:43:00,,0831.4,5.00,0.00,30.1,27.4,00.0,38.7,31.8,26.5,0000.0,0017.16,0006.31,0005.23
2022-08-31 15:44:00,,0831.4,5.00,0.00,30.0,27.1,00.0,38.7,31.8,26.6,0000.0,0017.48,0006.36,0005.27
2022-08-31 15:45:00,,0831.5,5.01,0.00,30.0,27.4,00.0,38.6,31.7,25.7,0000.0,0017.98,0006.37,0005.30
2022-08-31 15:46:00,,0831.5,5.00,0.00,29.9,27.7,00.0,38.6,31.6,24.7,0000.0,0018.03,0006.37,0005.32
2022-08-31 15:47:00,,0831.4,5.00,0.00,29.9,27.9,00.0,38.6,31.7,24.7,0000.0,0017.88,0006.42,0005.33
2022-08-31 15:48:00,,0831.5,5.01,0.00,29.9,28.2,00.0,38.6,31.7,24.9,0000.0,0018.20,0006.47,0005.34
2022-08-31 15:49:00,,0831.5,5.01,0.00,29.9,28.4,00.0,38.6,31.7,25.6,0000.0,0018.23,0006.55,0005.36
2022-08-31 15:50:00,,0831.5,5.00,0.00,29.9,28.5,00.0,38.6,31.7,25.8,0000.0,0018.57,0006.61,0005.39
2022-08-31 15:51:00,,0831.5,5.00,0.00,29.9,28.7,00.0,38.6,31.8,24.3,0000.0,0017.73,0006.63,0005.41
2022-08-31 15:52:00,,0831.5,4.99,0.00,30.0,28.8,00.0,38.7,31.9,25.1,0000.0,0016.54,0006.60,0005.43
2022-08-31 15:53:00,,0831.6,5.00,0.00,30.0,28.9,00.0,38.7,31.9,26.0,0000.0,0016.32,0006.62,0005.44
2022-08-31 15:54:00,,0831.6,5.00,0.00,30.0,28.9,00.0,38.7,31.9,25.9,0000.0,0016.23,0006.67,0005.48
2022-08-31 15:55:00,,0831.6,4.99,0.00,30.0,28.2,00.0,38.7,31.9,26.1,0000.0,0017.07,0006.75,0005.53
2022-08-31 15:56:00,,0831.6,5.00,0.00,30.0,27.1,00.0,38.6,31.7,25.7,0000.0,0018.39,0006.86,0005.57
2022-08-31 15:57:00,,0831.7,4.99,0.00,30.0,27.0,00.0,38.6,31.7,25.8,0000.0,0019.09,0006.95,0005.63
2022-08-31 15:58:00,,0831.7,5.00,0.00,29.9,27.3,00.0,38.6,31.6,26.3,0000.0,0018.73,0007.03,0005.68
2022-08-31 15:59:00,,0831.7,5.01,0.00,29.9,27.6,00.0,38.6,31.6,27.0,0000.0,0018.88,0007.11,0005.73
